This is the latest recevied weather packets stored in our database for station/object OK1ALX-6. If no packets are shown the sender has not sent any weather packets the latest 10 day(s).
| Time | Temp. | Humidity | Pressure | Rain* | Wind** | Luminosity | Snow |
|---|---|---|---|---|---|---|---|
| 1777817403 | 23.89° C | 33% | 1018.3 hPa | 0 mm | - | 464 W/m² | - |
| 1777816803 | 23.89° C | 32% | 1018.3 hPa | 0 mm | - | 478 W/m² | - |
| 1777816203 | 23.89° C | 33% | 1018.5 hPa | 0 mm | - | 542 W/m² | - |
| 1777815603 | 23.89° C | 31% | 1018.6 hPa | 0 mm | - | 560 W/m² | - |
| 1777815003 | 23.89° C | 31% | 1018.6 hPa | 0 mm | - | 547 W/m² | - |
| 1777814403 | 23.89° C | 32% | 1018.8 hPa | 0 mm | - | 596 W/m² | - |
| 1777813803 | 23.89° C | 31% | 1018.8 hPa | 0 mm | - | 637 W/m² | - |
| 1777813203 | 23.89° C | 31% | 1019 hPa | 0 mm | - | 630 W/m² | - |
| 1777812603 | 23.33° C | 32% | 1019.1 hPa | 0 mm | - | 583 W/m² | - |
| 1777812003 | 23.33° C | 34% | 1019.2 hPa | 0 mm | - | 609 W/m² | - |
| 1777811403 | 23.33° C | 34% | 1019.3 hPa | 0 mm | - | 425 W/m² | - |
| 1777810803 | 23.33° C | 34% | 1019.6 hPa | 0 mm | - | 607 W/m² | - |
| 1777810203 | 23.33° C | 36% | 1019.6 hPa | 0 mm | - | 451 W/m² | - |
| 1777809603 | 23.33° C | 34% | 1019.8 hPa | 0 mm | - | 633 W/m² | - |
| 1777809003 | 22.78° C | 34% | 1019.9 hPa | 0 mm | - | 650 W/m² | - |
| 1777808403 | 22.78° C | 35% | 1020.3 hPa | 0 mm | - | 632 W/m² | - |
| 1777807803 | 22.78° C | 35% | 1020.2 hPa | 0 mm | - | 582 W/m² | - |
| 1777807203 | 22.78° C | 36% | 1020.4 hPa | 0 mm | - | 618 W/m² | - |
| 1777806603 | 22.22° C | 36% | 1020.5 hPa | 0 mm | - | 616 W/m² | - |
| 1777806003 | 21.67° C | 38% | 1020.9 hPa | 0 mm | - | 650 W/m² | - |
| 1777805403 | 22.22° C | 36% | 1020.8 hPa | 0 mm | - | 669 W/m² | - |
| 1777804803 | 21.67° C | 36% | 1021.1 hPa | 0 mm | - | 640 W/m² | - |
| 1777804203 | 21.67° C | 37% | 1021.2 hPa | 0 mm | - | 643 W/m² | - |
| 1777803606 | 21.67° C | 40% | 1021.1 hPa | 0 mm | - | 648 W/m² | - |
| 1777803003 | 21.67° C | 38% | 1021.3 hPa | 0 mm | - | 692 W/m² | - |
* Rain latest hour (hover to see other rain measurements)
** Current wind speed in m/s (hover to see current wind gust speed)